Вернуться в каталог

KUIPER-00222

АктивенСвязьLEO
NORAD 67782·PAYLOAD·🇺🇸 United States

Запущен Feb 12, 2026 с Guiana Space Centre

Loading…

Ближайшие Пролёты (ближайшие 24 часа)

TLE

СвежийSource: CelesTrak SupGP

Эпоха: Sep 14, 2026, 16:08 UTC

1 67782C 26030U   26257.67233796 -.00003572  00000+0 -46765-3 0  2572
2 67782  51.8973  85.0652 0001008 113.7919 198.1592 14.79928235    17

Отслеживайте KUIPER-00222 в реальном времени с AllMySat

Download on the App Store